TimeCST,TemperatureF,Dew PointF,Humidity,Sea Level PressureIn,VisibilityMPH,Wind Direction,Wind SpeedMPH,Gust SpeedMPH,PrecipitationIn,Events,Conditions,WindDirDegrees,DateUTC
12:14 AM,33.8,30.2,87,30.04,7.0,SE,9.2,-,N/A,,Light Drizzle,140,2013-03-09 06:14:00
12:34 AM,33.8,30.6,88,30.03,4.0,SE,9.2,-,0.01,,Drizzle,130,2013-03-09 06:34:00
12:54 AM,33.1,31.1,92,30.02,3.0,ESE,10.4,-,0.05,Rain,Light Rain,120,2013-03-09 06:54:00
1:14 AM,32.9,31.3,94,30.01,3.0,ESE,10.4,-,0.02,Rain,Light Rain,110,2013-03-09 07:14:00
1:34 AM,32.4,32.0,99,30.00,2.5,ESE,12.7,-,0.07,Rain,Light Rain,110,2013-03-09 07:34:00
1:54 AM,32.5,32.0,98,29.99,2.5,ESE,12.7,-,0.10,Rain,Light Rain,110,2013-03-09 07:54:00
2:14 AM,32.9,32.4,98,29.98,2.5,ESE,12.7,17.3,0.02,Rain,Rain,120,2013-03-09 08:14:00
2:34 AM,33.1,32.5,98,29.96,2.0,ESE,11.5,-,0.07,Rain,Light Rain,110,2013-03-09 08:34:00
2:54 AM,33.1,32.5,98,29.95,2.0,ESE,13.8,-,0.12,Rain,Rain,120,2013-03-09 08:54:00
3:14 AM,33.1,32.5,98,29.93,2.0,ESE,12.7,-,0.03,Rain,Light Rain,120,2013-03-09 09:14:00
3:34 AM,33.3,32.9,99,29.92,2.5,ESE,11.5,-,0.05,Rain,Light Rain,120,2013-03-09 09:34:00
3:54 AM,33.4,32.9,98,29.92,3.0,SE,9.2,-,0.07,Rain,Rain,130,2013-03-09 09:54:00
4:14 AM,33.8,33.1,97,29.92,3.0,SE,10.4,-,N/A,,Drizzle,130,2013-03-09 10:14:00
4:34 AM,33.8,33.1,97,29.91,4.0,SE,8.1,-,N/A,,Light Drizzle,130,2013-03-09 10:34:00
4:54 AM,33.8,33.1,97,29.90,4.0,SE,9.2,-,N/A,,Drizzle,130,2013-03-09 10:54:00
5:13 AM,33.8,33.1,97,29.90,3.0,SE,8.1,-,0.01,,Drizzle,130,2013-03-09 11:13:00
5:34 AM,33.8,33.1,97,29.90,3.0,SE,6.9,-,0.01,,Light Drizzle,130,2013-03-09 11:34:00
5:54 AM,33.8,33.1,97,29.90,3.0,SE,8.1,-,0.01,,Light Drizzle,130,2013-03-09 11:54:00
6:14 AM,34.0,33.4,98,29.87,3.0,SE,9.2,-,N/A,,Overcast,130,2013-03-09 12:14:00
6:34 AM,34.0,33.4,98,29.87,3.0,SE,6.9,-,N/A,,Overcast,130,2013-03-09 12:34:00
6:54 AM,34.0,33.4,98,29.86,2.5,SE,8.1,-,N/A,,Overcast,140,2013-03-09 12:54:00
7:14 AM,34.2,33.8,99,29.85,2.0,SE,10.4,-,N/A,,Overcast,130,2013-03-09 13:14:00
7:34 AM,34.2,33.8,99,29.84,2.0,SE,9.2,-,N/A,,Overcast,130,2013-03-09 13:34:00
7:54 AM,34.2,33.8,99,29.83,2.5,SE,8.1,-,N/A,,Overcast,130,2013-03-09 13:54:00
8:14 AM,34.2,33.8,99,29.83,3.0,SE,8.1,-,N/A,,Overcast,130,2013-03-09 14:14:00
8:34 AM,34.3,33.8,98,29.82,4.0,SE,9.2,-,N/A,,Overcast,140,2013-03-09 14:34:00
8:54 AM,34.5,34.0,98,29.81,4.0,SE,6.9,-,N/A,,Overcast,130,2013-03-09 14:54:00
9:14 AM,34.7,34.0,97,29.80,4.0,SE,9.2,-,N/A,,Overcast,130,2013-03-09 15:14:00
9:34 AM,34.2,33.8,99,29.80,4.0,SE,6.9,-,N/A,,Overcast,140,2013-03-09 15:34:00
9:54 AM,34.3,33.8,98,29.80,3.0,SE,8.1,-,N/A,,Overcast,140,2013-03-09 15:54:00
10:14 AM,34.5,34.0,98,29.79,1.2,SE,6.9,-,N/A,,Overcast,140,2013-03-09 16:14:00
10:34 AM,34.7,34.2,98,29.78,1.0,ESE,6.9,-,N/A,,Drizzle,120,2013-03-09 16:34:00
10:54 AM,35.2,34.7,98,29.78,1.0,SE,6.9,-,0.01,,Drizzle,130,2013-03-09 16:54:00
11:14 AM,35.1,34.7,99,29.75,1.0,ESE,10.4,-,N/A,,Drizzle,120,2013-03-09 17:14:00
11:34 AM,35.2,34.7,98,29.75,1.5,ESE,8.1,-,N/A,,Light Drizzle,120,2013-03-09 17:34:00
11:54 AM,35.2,34.7,98,29.75,3.0,SE,6.9,-,0.01,Rain,Light Rain,130,2013-03-09 17:54:00
12:14 PM,35.2,34.7,98,29.75,2.0,SE,6.9,-,0.02,Rain,Rain,140,2013-03-09 18:14:00
12:33 PM,35.6,34.9,97,29.74,3.0,SE,6.9,-,0.04,Rain,Rain,130,2013-03-09 18:33:00
12:54 PM,35.6,34.9,97,29.74,4.0,SE,5.8,-,0.04,,Drizzle,130,2013-03-09 18:54:00
1:14 PM,36.0,35.6,99,29.72,4.0,ESE,8.1,-,N/A,Rain,Rain,120,2013-03-09 19:14:00
1:33 PM,35.8,35.6,99,29.70,4.0,ESE,5.8,-,0.01,,Drizzle,110,2013-03-09 19:33:00
1:54 PM,35.6,35.2,99,29.69,5.0,ESE,5.8,-,0.01,,Drizzle,110,2013-03-09 19:54:00
2:14 PM,35.6,34.9,97,29.69,4.0,SE,5.8,-,0.01,Rain,Rain,130,2013-03-09 20:14:00
2:34 PM,35.6,35.2,99,29.68,5.0,SE,6.9,-,0.01,,Light Drizzle,130,2013-03-09 20:34:00
2:54 PM,35.2,34.9,99,29.69,2.5,SE,5.8,-,0.01,,Drizzle,140,2013-03-09 20:54:00
3:14 PM,35.2,34.7,98,29.68,3.0,ESE,5.8,-,0.01,,Drizzle,120,2013-03-09 21:14:00
3:34 PM,35.1,34.7,99,29.67,2.5,East,5.8,-,0.01,Rain,Light Rain,100,2013-03-09 21:34:00
3:54 PM,35.2,34.7,98,29.68,4.0,SE,5.8,-,0.02,,Drizzle,130,2013-03-09 21:54:00
4:14 PM,35.1,34.7,99,29.67,5.0,ESE,3.5,-,N/A,,Overcast,110,2013-03-09 22:14:00
4:34 PM,34.9,34.7,99,29.68,5.0,SE,5.8,-,N/A,,Overcast,140,2013-03-09 22:34:00
4:54 PM,34.7,34.3,99,29.68,3.0,SE,3.5,-,N/A,,Overcast,140,2013-03-09 22:54:00
5:14 PM,34.7,34.5,99,29.68,1.2,SSE,3.5,-,N/A,,Light Drizzle,160,2013-03-09 23:14:00
5:34 PM,34.7,34.5,99,29.68,0.8,SSE,3.5,-,N/A,,Drizzle,150,2013-03-09 23:34:00
5:54 PM,34.7,34.3,99,29.68,0.8,SSE,3.5,-,0.01,,Light Drizzle,150,2013-03-09 23:54:00
6:14 PM,34.2,33.8,99,29.69,0.5,Calm,Calm,-,N/A,Rain,Light Rain,0,2013-03-10 00:14:00
6:34 PM,34.5,34.0,98,29.69,0.8,Calm,Calm,-,N/A,Rain,Light Rain,0,2013-03-10 00:34:00
6:54 PM,34.0,33.8,99,29.70,0.5,Calm,Calm,-,N/A,Fog,Fog,0,2013-03-10 00:54:00
7:14 PM,33.4,33.1,99,29.70,0.5,Calm,Calm,-,N/A,Fog,Fog,0,2013-03-10 01:14:00
7:34 PM,33.6,33.3,99,29.72,0.5,NW,3.5,-,N/A,Fog,Fog,320,2013-03-10 01:34:00
7:54 PM,33.8,33.3,98,29.72,0.5,Calm,Calm,-,N/A,Fog,Fog,0,2013-03-10 01:54:00
8:14 PM,33.8,33.3,98,29.72,0.5,Calm,Calm,-,N/A,Fog,Fog,0,2013-03-10 02:14:00
8:34 PM,33.4,33.1,99,29.72,0.5,NNW,4.6,-,N/A,Fog,Fog,330,2013-03-10 02:34:00
8:54 PM,33.6,33.3,99,29.73,0.5,NNW,4.6,-,N/A,,Light Drizzle,340,2013-03-10 02:54:00
9:14 PM,33.8,33.3,98,29.74,0.5,NW,3.5,-,N/A,,Drizzle,320,2013-03-10 03:14:00
9:34 PM,33.4,33.1,99,29.75,0.8,NW,4.6,-,N/A,,Overcast,310,2013-03-10 03:34:00
9:54 PM,33.8,33.3,98,29.77,0.8,WNW,4.6,-,N/A,,Overcast,300,2013-03-10 03:54:00
10:14 PM,33.8,33.3,98,29.77,0.5,WNW,5.8,-,N/A,Fog,Fog,300,2013-03-10 04:14:00
10:34 PM,33.8,33.3,98,29.78,2.5,NW,8.1,-,N/A,,Light Drizzle,310,2013-03-10 04:34:00
10:54 PM,33.4,33.1,99,29.78,4.0,NW,11.5,-,N/A,Rain,Light Rain,320,2013-03-10 04:54:00
11:14 PM,33.3,32.9,99,29.78,5.0,NW,12.7,-,N/A,,Light Drizzle,320,2013-03-10 05:14:00
11:34 PM,33.1,32.7,99,29.79,7.0,NNW,9.2,-,N/A,Rain,Light Rain,330,2013-03-10 05:34:00
11:54 PM,32.9,32.5,99,29.80,7.0,NNW,11.5,-,N/A,Rain,Rain,330,2013-03-10 05:54:00